User: anonymous   Login
Location: Unspecified
(0.0000°N, 0.0000°E)
Time: 17:04:09
(UTC+00:00)
Language:

FALCON 9 R/B - Orbit

View from above orbital plane
View from above orbital plane
View from above satellite
View from above satellite

Ground track
Ground track

The orbit data is extracted from the following two-line orbital elements,

1 39271U 13055G   17264.91212578 +.00004803 +00000-0 +12441-3 0  9991
2 39271 080.9659 254.7181 0626541 275.9001 077.1148 14.38531277206521
Epoch (UTC): 21 September 2017 21:53:27
Eccentricity: 0.0626541
inclination: 80.9659°
perigee height: 316 km
apogee height: 1211 km
right ascension of ascending node: 254.7181°
argument of perigee: 275.9001°
revolutions per day: 14.38531277
mean anomaly at epoch: 77.1148°
orbit number at epoch: 20652

The dashed part of the orbit path shows where the satellite is in the earth's shadow,  

DLR